Weather History for Covington, KY

Change the Weather History Date:

Thursday, December 5, 2013

  Actual Average Record
Temperature  
Mean Temperature 49 °F 37 °F  
Max Temperature 66 °F 45 °F 70 °F (2001)
Min Temperature 32 °F 29 °F 9 °F (1886)
Degree Days  
Heating Degree Days 16 28  
Month to date heating degree days 85 136  
Since 1 July heating degree days 1121 1096  
Cooling Degree Days 0 0  
Month to date cooling degree days 0 0  
Year to date cooling degree days 1150 1121  
Moisture  
Dew Point 45 °F    
Average Humidity 87    
Maximum Humidity 100    
Minimum Humidity 74    
Precipitation  
Precipitation 0.83 in 0.11 in 2.76 in (2011)
Month to date precipitation 0.83 0.55  
Year to date precipitation 45.40 39.70  
Snow  
Snow 0.00 in 0.10 in 6.40 in (1984)
Month to date snowfall 0.0 0.5  
Since 1 July snowfall 2.4 1.3  
Snow Depth 0.00 in    
Sea Level Pressure  
Sea Level Pressure 29.94 in    
Wind  
Wind Speed 11 mph (WNW)    
Max Wind Speed 23 mph    
Max Gust Speed 28 mph    
Visibility 6 miles    
Events Rain    
T = Trace of Precipitation, MM = Missing Value Source: NWS Daily Summary

Daily Weather History Graph

Daily Weather History Graph

Search for Another Location

Airport:

Trip Planner

Search our weather history database for the weather conditions in past years. The results will help you decide how hot, cold, wet, or windy it might be!

Date:

Astronomy

Dec. 05, 2013 Rise Set
Actual Time 7:42 AM EST 5:16 PM EST
Civil Twilight 7:12 AM EST 5:45 PM EST
Nautical Twilight 6:39 AM EST 6:19 PM EST
Astronomical Twilight 6:07 AM EST 6:51 PM EST
Moon 10:02 AM EST (12/5) 8:35 PM EST (12/5)
Length of Visible Light 10h 32m
Length of Day
9h 33m
Waxing Crescent, 10% of the Moon is Illuminated
Dec 5
Waxing Crescent
Dec 9
First Quarter
Dec 17
Full
Dec 25
Last Quarter
Jan 1
New

Hourly Weather History & Observations

Time (EST) Temp. Windchill Dew Point Humidity Pressure Visibility Wind Dir Wind Speed Gust Speed Precip Events Conditions
12:52 AM 63.0 °F - 57.0 °F 81% 29.77 in 8.0 mi SSW 10.4 mph - N/A   Mostly Cloudy
1:52 AM 64.0 °F - 57.9 °F 80% 29.77 in 7.0 mi SSW 10.4 mph - N/A   Mostly Cloudy
2:52 AM 64.9 °F - 59.0 °F 81% 29.78 in 7.0 mi SSW 10.4 mph 18.4 mph N/A   Overcast
3:52 AM 64.9 °F - 60.1 °F 84% 29.77 in 7.0 mi SSW 11.5 mph - N/A   Overcast
4:48 AM 62.6 °F - 62.6 °F 100% 29.80 in 2.0 mi West 11.5 mph - 0.12 in Rain Heavy Rain
4:52 AM 63.0 °F - 62.1 °F 97% 29.79 in 1.5 mi West 9.2 mph - 0.22 in Rain Heavy Rain
5:14 AM 62.6 °F - 62.6 °F 100% 29.79 in 4.0 mi SSW 5.8 mph - 0.10 in Rain Light Rain
5:52 AM 62.1 °F - 61.0 °F 96% 29.78 in 3.0 mi SSW 8.1 mph - 0.17 in Rain Light Rain
6:27 AM 62.6 °F - 60.8 °F 94% 29.81 in 1.5 mi WSW 8.1 mph - 0.08 in Rain Heavy Rain
6:42 AM 62.6 °F - 60.8 °F 94% 29.82 in 2.0 mi SW 6.9 mph 16.1 mph 0.17 in Rain Rain
6:52 AM 62.1 °F - 61.0 °F 96% 29.80 in 4.0 mi SW 6.9 mph - 0.18 in Rain Rain
7:39 AM 62.6 °F - 60.8 °F 94% 29.82 in 3.0 mi WSW 4.6 mph - 0.09 in Rain Light Rain
7:52 AM 61.0 °F - 61.0 °F 100% 29.83 in 2.0 mi West 8.1 mph - 0.09 in Rain Heavy Rain
8:04 AM 57.2 °F - 57.2 °F 100% 29.86 in 2.0 mi NW 19.6 mph 26.5 mph 0.08 in Rain Rain
8:12 AM 53.6 °F - 53.6 °F 100% 29.87 in 2.0 mi NW 21.9 mph - 0.08 in Rain Rain
8:31 AM 53.6 °F - 51.8 °F 94% 29.89 in 4.0 mi WNW 18.4 mph - 0.09 in   Overcast
8:52 AM 52.0 °F - 50.0 °F 93% 29.89 in 3.0 mi WNW 13.8 mph - 0.09 in Rain Light Rain
9:06 AM 51.8 °F - 50.0 °F 94% 29.90 in 4.0 mi NW 13.8 mph - 0.00 in Rain Light Rain
9:52 AM 50.0 °F - 45.0 °F 83% 29.92 in 7.0 mi WNW 9.2 mph - 0.00 in   Overcast
10:09 AM 50.0 °F - 44.6 °F 82% 29.92 in 7.0 mi NW 8.1 mph - N/A   Overcast
10:52 AM 50.0 °F - 43.0 °F 77% 29.94 in 8.0 mi NW 11.5 mph - N/A   Overcast
11:52 AM 48.0 °F - 42.1 °F 80% 29.95 in 7.0 mi NW 13.8 mph - N/A   Overcast
12:52 PM 46.9 °F - 41.0 °F 80% 29.97 in 6.0 mi WNW 12.7 mph - 0.00 in   Haze
1:25 PM 46.4 °F 40.4 °F 41.0 °F 81% 29.97 in 6.0 mi NNW 13.8 mph - N/A   Haze
1:52 PM 45.0 °F 38.9 °F 39.0 °F 80% 29.96 in 7.0 mi NW 12.7 mph - 0.00 in   Overcast
2:07 PM 44.6 °F 38.4 °F 37.4 °F 76% 29.96 in 9.0 mi NNW 12.7 mph - N/A   Overcast
2:52 PM 44.1 °F 38.1 °F 37.0 °F 76% 29.97 in 9.0 mi NW 11.5 mph - N/A   Overcast
3:10 PM 42.8 °F 36.2 °F 35.6 °F 76% 29.99 in 9.0 mi NW 12.7 mph - N/A   Overcast
3:52 PM 41.0 °F 34.3 °F 36.0 °F 82% 30.00 in 8.0 mi NNW 11.5 mph - 0.00 in   Overcast
4:17 PM 39.2 °F 30.8 °F 35.6 °F 87% 30.04 in 7.0 mi NW 15.0 mph - 0.00 in   Overcast
4:52 PM 39.0 °F 30.6 °F 36.0 °F 89% 30.06 in 6.0 mi NW 15.0 mph 24.2 mph 0.02 in   Overcast
5:52 PM 37.0 °F 29.3 °F 35.1 °F 93% 30.06 in 5.0 mi NNW 11.5 mph - 0.04 in Rain Light Rain
6:07 PM 35.6 °F 26.6 °F 33.8 °F 93% 30.06 in 7.0 mi North 13.8 mph - 0.00 in Rain Light Rain
6:37 PM 35.6 °F 28.6 °F 33.8 °F 93% 30.06 in 9.0 mi North 9.2 mph - 0.01 in   Overcast
6:52 PM 35.1 °F 28.6 °F 33.1 °F 92% 30.06 in 9.0 mi North 8.1 mph - 0.01 in Rain Light Rain
7:52 PM 35.1 °F 27.9 °F 32.0 °F 89% 30.07 in 9.0 mi NNW 9.2 mph - 0.00 in   Overcast
8:35 PM 35.6 °F 26.6 °F 32.0 °F 87% 30.10 in 8.0 mi NNW 13.8 mph - 0.01 in   Overcast
8:52 PM 34.0 °F 24.6 °F 30.0 °F 85% 30.11 in 10.0 mi North 13.8 mph - 0.01 in Rain Light Rain
9:02 PM 33.8 °F 25.8 °F 30.2 °F 87% 30.13 in 9.0 mi NW 10.4 mph - 0.00 in Rain Light Rain
9:32 PM 33.8 °F 25.3 °F 30.2 °F 87% 30.12 in 8.0 mi NNW 11.5 mph - 0.00 in   Overcast
9:52 PM 34.0 °F 28.0 °F 32.0 °F 92% 30.15 in 7.0 mi NNW 6.9 mph - 0.00 in   Overcast
10:52 PM 33.1 °F 23.4 °F 28.9 °F 85% 30.13 in 9.0 mi North 13.8 mph - N/A   Overcast
11:19 PM 32.0 °F 24.2 °F 28.4 °F 87% 30.13 in 10.0 mi North 9.2 mph - N/A   Overcast
11:52 PM 32.0 °F 23.0 °F 28.9 °F 88% 30.17 in 10.0 mi NNW 11.5 mph - N/A   Overcast